User: anonymous   Login
Location: Voyageurs National Park
(48.5020°N, 92.9292°W)
Time: 17:07:50
(UTC-06:00)
Language:

Terra - Orbit

View from above orbital plane
View from above orbital plane
View from above satellite
View from above satellite

Ground track
Ground track

The orbit data is extracted from the following two-line orbital elements,

1 25994U 99068A   18052.20059769  .00000214  00000-0  57491-4 0  9992
2 25994  98.2065 128.7035 0001208 101.8363 258.3028 14.57114509966938
Epoch (UTC): 21 February 2018 04:48:51
Eccentricity: 0.0001208
inclination: 98.2065°
perigee height: 701 km
apogee height: 703 km
right ascension of ascending node: 128.7035°
argument of perigee: 101.8363°
revolutions per day: 14.57114509
mean anomaly at epoch: 258.3028°
orbit number at epoch: 96693

The dashed part of the orbit path shows where the satellite is in the earth's shadow,  

DLR